Location: Lansingburgh
(42.7845°N, 73.6696°W)
Time: 13:31:51
(UTC+00:00)

Cosmos 864 Rocket - Pass Details

Date: 24 January 2020
Orbit: 954 x 991 km, 82.9° (Epoch: 23 February)

Event Time Altitude Azimuth Distance (km) Brightness Sun altitude
Rises 23:06:40 0° 177° (S) 3,619 7.6 -12.9°
Reaches altitude 10° 23:09:10 10° 175° (S) 2,675 6.9 -13.3°
Maximum altitude 23:15:13 67° 94° (E) 1,028 4.4 -14.4°
Drops below altitude 10° 23:21:18 10° 13° (NNE) 2,694 6.6 -15.5°
Sets 23:23:49 0° 11° (N) 3,647 7.3 -15.9°
